GSAT0102 (GALILEO-FM2)

Last updated on Fri Oct 11 2024 00:02:28 GMT+0000 (Coordinated Universal Time)

1 37847U 11060B 24284.03983277 -.00000077 00000+0 00000+0 0 9999 2 37847 57.1246 358.4308 0002457 298.7368 65.3721 1.70475338 80648
UTC large
Height (km)
Speed (km/s)
/
Latitude / Longitude
Inclination (degrees)
Orbital Period (minutes)
Azimuth
Elevation
Range (km)
Doppler Factor

Next 0 passes for location: London (51.5072 / 0.1276)

Sorry there are no passes over London.